SCP
0 0 0 0 0 0 0 0 0 0 0 0 0 0 0 0 0 0 0 0 0 0 0 0 0 0 0 0 0 0 0 0 0 0 0 0 0 0 0 0 0 0 0
0 0 0 0 0 0 0 0 0 0 0 0 0 0 0 0 0 0 0 0 0 1 0 0 0 0 0 0 0 0 0 0 0 0 0 0 0 0 0 0 0 0 0
0 0 0 0 0 0 0 0 0 0 0 0 0 0 0 0 0 0 0 0 0 0 0 0 0 0 0 0 0 0 0 0 0 0 0 0 0 0 0 0 0 0 0
0 0 0 0 0 0 0 0 0 0 0 0 0 0 0 0 0 0 0 0 0 0 0 0 0 0 0 0 0 0 0 0 0 0 0 0 0 0 0 0 0 0 0
0 0 0 0 0 0 0 0 0 0 0 0 0 0 0 0 0 0 0 0 0 0 0 0 0 0 0 0 0 0 0 0 0 0 0 0 0 0 0 0 0 0 0
0 0 0 0 0 0 0 0 0 0 0 0 0 0 0 0 0 0 0 0 0 0 0 0 0 0 0 0 0 0 0 0 0 0 0 0 0 0 0 0 0 0 0
0 0 0 0 0 0 0 0 0 0 0 0 0 0 0 0 0 0 0 0 0 0 0 0 0 0 0 0 0 0 0 0 0 0 0 0 0 0 0 0 0 0 0
0 0 0 0 0 0 0 0 0 0 0 0 0 0 0 0 0 0 0 0 0 0 0 0 0 0 0 0 0 0 0 0 0 0 0 0 0 0 0 0 0 0 0
0 0 0 0 0 0 0 0 0 0 0 0 0 0 0 0 0 0 0 0 0 0 0 0 0 0 0 0 0 0 0 0 0 0 0 0 0 0 0 0 0 0 0
0 0 0 0 0 0 0 0 0 0 0 0 0 0 0 0 0 0 0 0 0 0 0 0 0 0 0 0 0 0 0 0 0 0 0 0 0 0 0 0 0 0 0
0 0 0 0 0 0 0 0 0 0 0 0 0 0 0 0 0 0 0 0 0 0 0 0 0 0 0 0 0 0 0 0 0 0 0 0 0 0 0 0 0 0 0
0 0 0 0 0 0 0 0 0 0 0 0 0 0 0 0 0 0 0 0 0 0 0 0 0 0 0 0 0 0 0 0 0 0 0 0 0 0 0 0 0 0 0
0 0 0 0 0 0 0 0 0 0 0 0 0 0 0 0 0 0 0 0 0 0 0 0 0 0 0 0 0 0 0 0 0 0 0 0 0 0 0 0 0 0 0
0 0 0 0 0 0 0 0 0 0 0 0 0 0 0 0 0 0 0 0 0 0 0 0 0 0 0 0 0 0 0 0 0 0 0 0 0 0 0 0 0 0 0
0 0 0 0 0 0 0 0 0 0 0 0 0 0 0 0 0 0 0 0 0 0 0 0 0 0 0 0 0 0 0 0 0 0 0 0 0 0 0 0 0 0 0
0 0 0 0 0 0 0 0 0 0 0 0 0 0 0 0 0 0 0 0 0 0 0 0 0 0 0 0 0 0 0 0 0 0 0 0 0 0 0 0 0 0 0
0 0 0 0 0 0 0 0 0 0 0 0 0 0 0 0 0 0 0 0 0 0 0 0 0 0 0 0 0 0 0 0 0 0 0 0 0 0 0 0 0 0 0
0 0 0 0 0 0 0 0 0 0 0 0 0 0 0 0 0 0 0 0 0 0 0 0 0 0 0 0 0 0 0 0 0 0 0 0 0 0 0 0 0 0 0
0 0 0 0 0 0 0 0 0 0 0 0 0 0 0 0 0 0 0 0 0 0 0 0 0 0 0 0 0 0 0 0 0 0 0 0 0 0 0 0 0 0 0
0 0 0 0 0 0 0 0 0 0 0 0 0 0 0 0 0 0 0 0 0 0 0 0 0 0 0 0 0 0 0 0 0 0 0 0 0 0 0 0 0 0 0
0 0 0 0 0 0 0 0 0 0 0 0 0 0 0 0 0 0 0 0 0 0 0 0 0 0 0 0 0 0 0 0 0 0 0 0 0 0 0 0 0 0 0
0 0 0 0 0 0 0 0 0 0 0 0 0 0 0 0 0 0 0 0 0 0 0 0 0 0 0 0 0 0 0 0 0 0 0 0 0 0 0 0 0 0 0
0 0 0 0 0 0 0 0 0 0 0 0 0 0 0 0 0 0 0 0 0 0 0 0 0 0 0 0 0 0 0 0 0 0 0 0 0 0 0 0 0 0 0
0 0 0 0 0 0 0 0 0 0 0 0 0 0 0 0 0 0 0 0 0 0 0 0 0 0 0 0 0 0 0 0 0 0 0 0 0 0 0 0 0 0 0
0 0 0 0 0 0 0 0 0 0 0 0 0 0 0 0 0 0 0 0 0 0 0 0 0 0 0 0 0 0 0 0 0 0 0 0 0 0 0 0 0 0 0
0 0 0 0 0 0 0 0 0 0 0 0 0 0 0 0 0 0 0 0 0 0 0 0 0 0 0 0 0 0 0 0 0 0 0 0 0 0 0 0 0 0 0
Wind_Speed
4 3 2 2 1 1 1 1 0 0 1 1 2 3 3 4 4 3 2 6 6 6 6 6 6 5 5 5 5 5 6 6 7 8 8 8 8 8 9 9 9 9 9
4 4 3 2 2 2 2 1 1 2 2 2 3 3 4 4 4 4 3 4 6 6 6 6 5 5 5 5 5 6 6 7 7 7 8 8 8 9 9 9 9 9 9
5 4 3 3 3 2 3 3 3 3 3 3 4 4 4 3 4 4 3 3 3 4 6 5 5 5 5 5 5 5 6 6 7 7 7 7 7 7 7 7 7 7 8
7 5 4 4 3 3 3 3 3 3 3 3 3 3 3 3 4 3 3 3 2 2 3 5 5 5 4 4 4 4 5 5 5 5 5 5 5 5 4 4 4 5 5
7 6 4 4 4 4 4 4 3 3 3 4 4 4 4 4 3 3 3 3 2 2 2 2 3 3 4 4 4 4 4 4 5 5 4 4 4 4 3 2 1 1 3
7 6 4 5 5 4 4 4 4 3 3 3 5 5 4 4 4 3 2 2 2 2 2 2 1 1 2 3 4 5 6 6 7 7 7 7 7 6 6 5 4 4 4
6 6 5 6 5 5 5 6 4 5 3 2 3 3 3 4 5 4 3 3 3 3 3 3 2 2 3 5 6 7 8 9 9 10 10 10 9 9 9 9 8 8 8
5 5 6 5 5 6 6 5 5 3 2 1 2 3 1 1 3 4 4 3 4 4 5 5 4 4 3 2 5 7 8 9 10 11 11 10 9 9 10 11 11 11 11
5 6 7 6 5 5 6 5 5 5 4 2 2 3 4 4 1 2 4 4 5 5 4 4 6 6 5 4 4 6 8 9 8 9 10 9 7 8 10 11 12 13 14
6 6 7 7 6 5 5 4 3 3 5 3 2 3 2 3 4 2 1 3 4 6 5 5 6 7 7 5 6 10 11 11 11 10 10 10 10 11 12 13 15 16 18
5 6 7 7 6 5 6 6 5 4 3 4 3 2 3 3 3 3 2 1 2 3 4 4 4 5 7 7 5 9 12 12 12 13 13 13 14 14 15 17 19 20 22
5 6 7 7 7 6 7 7 6 7 6 6 5 3 2 3 2 3 2 1 0 1 2 2 3 4 5 6 8 13 13 13 13 14 15 15 16 17 19 20 22 23 24
4 6 8 7 7 7 8 8 8 8 8 9 7 5 5 3 2 2 2 1 0 1 1 0 1 3 4 5 6 13 12 14 14 15 16 16 18 19 21 22 23 24 25
6 7 9 9 9 8 9 9 8 8 8 9 9 7 5 4 3 2 2 2 0 1 2 2 1 2 3 5 7 12 9 14 16 16 16 17 18 20 21 22 23 24 24
8 9 10 10 10 9 9 9 8 8 8 8 7 7 5 4 4 3 2 2 2 1 2 3 2 3 4 6 9 8 8 13 16 16 17 18 19 20 21 22 23 23 24
10 10 11 11 11 10 10 9 8 7 8 6 5 6 5 3 3 3 2 2 1 2 2 2 3 5 8 8 11 9 9 15 16 17 18 19 19 21 21 22 22 23 23
11 12 11 11 11 10 9 8 7 6 7 6 5 5 5 3 3 2 2 1 1 1 3 3 3 5 7 9 10 9 9 9 9 16 19 20 20 20 21 21 21 21 20
12 12 11 11 11 10 8 8 7 6 6 5 4 4 3 2 2 1 1 1 1 2 3 5 5 5 7 9 9 10 9 9 9 15 19 20 20 20 19 19 18 18 18
12 12 11 11 10 9 8 7 6 5 5 4 3 2 1 1 1 1 1 1 1 2 3 4 6 5 5 6 7 9 10 9 10 11 15 16 17 19 19 18 17 16 15
11 10 10 9 9 8 7 6 5 5 5 4 3 2 1 1 1 1 1 2 2 3 3 4 6 6 6 6 6 7 9 9 9 10 11 12 15 18 18 18 18 17 15
10 8 8 8 6 6 5 5 5 5 4 4 4 4 3 3 2 1 1 2 2 3 5 6 6 6 7 7 7 6 9 9 10 7 7 9 10 9 10 12 14 15 15
7 6 6 6 6 5 7 8 6 4 4 4 4 5 5 4 6 6 6 6 6 6 7 6 6 8 10 9 8 7 8 8 7 5 7 11 9 9 9 8 12 15 15
5 5 5 4 4 4 6 7 8 4 4 4 4 4 4 5 6 4 7 10 10 12 11 8 9 10 9 8 8 9 8 9 9 8 8 9 9 10 9 9 14 15 14
4 3 2 2 2 2 4 5 6 4 3 4 4 4 4 6 5 6 7 8 9 10 10 7 8 10 10 9 8 7 8 8 9 8 6 6 8 9 10 9 11 13 14
2 1 1 1 1 2 4 5 4 3 4 5 5 5 5 6 8 9 7 8 10 10 8 8 9 10 12 12 8 5 5 6 8 8 4 4 6 9 9 7 8 12 14
2 2 2 2 2 3 5 6 4 2 4 6 6 7 8 8 10 10 7 7 9 9 9 9 8 7 6 6 6 4 4 5 6 6 3 4 5 6 5 4 7 8 9
Wind_Direction
181 190 204 204 197 163 149 148 120 55 58 132 166 163 159 149 144 139 150 157 153 156 156 152 148 143 136 129 121 114 109 100 95 91 87 82 78 73 69 65 60 54 47
182 189 204 203 197 177 161 151 143 112 81 89 104 122 131 133 135 133 126 143 150 151 151 148 144 143 138 127 120 115 112 108 104 99 94 90 86 82 76 69 63 56 48
185 185 190 195 189 160 143 131 114 98 91 87 83 88 95 100 118 118 113 111 119 129 131 132 135 139 138 135 128 125 124 119 114 109 104 100 95 90 82 73 63 53 43
184 179 184 190 170 149 143 136 124 100 86 89 85 73 76 82 86 91 85 82 83 93 119 132 134 141 151 154 149 148 145 138 134 134 133 129 122 112 97 80 62 44 31
181 175 180 173 156 144 143 142 120 115 111 103 92 69 54 55 53 73 75 70 65 72 71 122 142 164 182 184 185 188 189 185 184 188 191 190 181 172 165 157 132 357 351
176 169 164 159 151 141 137 132 118 98 104 109 89 65 45 38 39 43 51 58 48 51 42 29 30 341 292 263 247 241 239 235 230 226 229 230 224 214 211 216 231 254 283
166 161 158 153 150 145 143 135 116 104 85 89 93 67 38 42 46 33 31 42 36 33 37 30 18 5 341 334 322 294 278 272 266 255 250 248 240 230 229 234 243 253 267
151 154 150 148 144 134 136 137 128 117 90 53 126 123 106 27 27 24 30 44 43 40 40 36 30 20 1 351 339 331 320 308 294 283 274 268 256 246 246 250 255 261 269
131 135 135 135 140 139 144 141 141 137 134 83 47 149 158 183 126 28 31 41 47 51 44 41 46 36 28 27 15 7 2 354 331 311 302 298 288 276 272 273 274 275 276
117 120 125 128 126 121 126 128 127 130 133 134 86 49 74 120 141 126 35 30 48 52 47 50 50 46 39 34 30 26 20 12 359 344 330 319 307 295 287 284 283 283 283
102 111 116 116 112 108 108 104 102 101 106 123 126 120 90 71 74 128 135 28 40 42 42 47 53 48 36 26 12 9 6 360 352 341 330 319 310 301 293 289 287 286 286
92 91 93 95 98 98 98 97 94 91 89 92 90 90 110 110 100 101 121 112 20 19 20 34 47 42 30 13 356 351 345 341 335 327 320 312 305 299 295 291 288 287 286
92 92 93 92 92 93 94 94 91 86 86 89 88 82 77 78 97 100 105 112 354 324 318 328 20 24 15 355 336 331 328 325 320 315 309 304 299 296 293 290 288 287 287
93 94 93 91 91 92 93 91 91 90 89 90 90 86 82 69 69 90 118 135 155 306 299 292 305 308 339 331 314 319 315 314 311 306 303 300 297 295 293 291 289 287 286
95 91 92 89 85 84 85 86 87 88 90 90 92 91 85 74 69 68 83 115 149 231 286 308 302 297 317 312 307 308 305 304 304 305 302 299 297 295 293 291 288 286 284
88 87 85 85 83 80 81 82 84 86 90 87 93 95 92 88 82 81 85 89 114 168 246 277 273 293 307 308 309 310 300 304 305 303 302 300 298 295 293 291 289 287 285
83 82 81 81 79 76 75 80 81 83 89 87 88 99 100 109 106 102 105 116 136 173 236 273 270 289 295 299 308 306 303 301 297 300 302 301 299 297 295 294 293 291 290
74 77 77 75 74 72 69 72 76 71 78 80 76 86 92 101 101 118 138 164 193 206 229 279 293 296 289 295 297 300 302 303 301 299 299 301 301 300 300 299 298 296 293
76 75 76 74 70 67 64 62 65 64 63 62 61 73 76 82 96 181 208 230 240 239 227 263 290 290 289 293 301 300 302 300 302 302 303 303 305 306 304 301 298 294 288
81 79 79 79 76 71 66 63 63 57 52 46 36 25 349 289 247 240 247 257 262 274 274 279 290 294 289 294 294 304 312 315 311 309 303 307 307 306 302 300 298 295 292
86 86 85 81 77 71 64 62 56 53 41 32 21 6 335 339 348 288 290 265 263 283 294 296 296 296 299 306 308 306 308 312 309 300 308 311 310 305 303 300 299 297 295
86 86 84 83 74 69 67 70 73 55 41 28 9 352 339 1 356 350 335 317 301 297 297 291 290 291 294 297 301 304 309 314 315 307 310 310 310 306 305 300 298 299 298
89 86 83 83 78 66 64 63 64 60 36 15 357 345 342 343 345 330 321 317 309 299 286 273 274 278 285 293 300 303 305 306 300 303 306 303 310 310 311 306 304 302 300
93 93 90 83 68 38 41 43 46 37 13 352 339 328 321 318 317 323 317 310 305 299 292 279 261 271 278 286 285 286 293 296 292 292 289 291 305 312 313 308 302 299 300
79 66 62 36 355 344 1 10 23 1 343 333 326 318 311 306 308 320 317 309 307 304 303 291 278 278 279 282 282 282 294 304 313 316 308 279 296 309 306 298 303 303 304
51 41 33 12 356 347 360 7 10 347 331 325 320 315 313 308 307 313 308 299 298 302 314 320 317 314 305 301 298 271 275 296 309 309 307 301 296 309 300 292 307 313 313